Time,TemperatureF,DewpointF,PressureIn,WindDirection,WindDirectionDegrees,WindSpeedMPH,WindSpeedGustMPH,Humidity,HourlyPrecipIn,Conditions,Clouds,dailyrainin,SoftwareType,DateUTC
2013-04-21 00:09:00,24.3,22.0,30.46,NNW,337,0.0,-999.0,90,-99.99,,,0.00,weatherlink.com 1.10,2013-04-21 04:09:00,
2013-04-21 00:24:00,24.0,22.0,30.46,NNW,337,0.0,-999.0,90,-99.99,,,0.00,weatherlink.com 1.10,2013-04-21 04:24:00,
2013-04-21 00:39:00,23.6,21.0,30.47,NNW,337,0.0,-999.0,91,-99.99,,,0.00,weatherlink.com 1.10,2013-04-21 04:39:00,
2013-04-21 00:54:00,23.5,21.0,30.47,NNW,337,0.0,-999.0,91,-99.99,,,0.00,weatherlink.com 1.10,2013-04-21 04:54:00,
2013-04-21 01:09:00,23.3,21.0,30.48,NNW,337,0.0,-999.0,91,-99.99,,,0.00,weatherlink.com 1.10,2013-04-21 05:09:00,
2013-04-21 01:24:00,23.3,21.0,30.48,NNW,337,0.0,-999.0,91,-99.99,,,0.00,weatherlink.com 1.10,2013-04-21 05:24:00,
2013-04-21 01:39:00,23.2,21.0,30.48,NNW,336,0.0,-999.0,91,-99.99,,,0.00,weatherlink.com 1.10,2013-04-21 05:39:00,
2013-04-21 01:54:00,23.0,21.0,30.48,NNW,337,0.0,-999.0,92,-99.99,,,0.00,weatherlink.com 1.10,2013-04-21 05:54:00,
2013-04-21 02:09:00,22.7,21.0,30.49,NNW,337,0.0,-999.0,92,-99.99,,,0.00,weatherlink.com 1.10,2013-04-21 06:09:00,
2013-04-21 02:24:00,22.4,21.0,30.48,NNW,337,0.0,-999.0,92,-99.99,,,0.00,weatherlink.com 1.10,2013-04-21 06:24:00,
2013-04-21 02:39:00,22.8,21.0,30.48,NNW,337,2.0,-999.0,93,-99.99,,,0.00,weatherlink.com 1.10,2013-04-21 06:39:00,
2013-04-21 02:54:00,23.0,21.0,30.48,NNW,337,0.0,-999.0,92,-99.99,,,0.00,weatherlink.com 1.10,2013-04-21 06:54:00,
2013-04-21 03:09:00,24.0,22.0,30.49,NNW,337,0.0,-999.0,93,-99.99,,,0.00,weatherlink.com 1.10,2013-04-21 07:09:00,
2013-04-21 03:24:00,23.6,21.0,30.50,NNW,337,0.0,-999.0,91,-99.99,,,0.00,weatherlink.com 1.10,2013-04-21 07:24:00,
2013-04-21 03:39:00,22.6,20.0,30.50,NNW,337,0.0,-999.0,91,-99.99,,,0.00,weatherlink.com 1.10,2013-04-21 07:39:00,
2013-04-21 03:54:00,22.3,20.0,30.50,NNW,336,0.0,-999.0,92,-99.99,,,0.00,weatherlink.com 1.10,2013-04-21 07:54:00,
2013-04-21 04:09:00,22.0,20.0,30.51,NNW,336,0.0,-999.0,92,-99.99,,,0.00,weatherlink.com 1.10,2013-04-21 08:09:00,
2013-04-21 04:24:00,21.7,20.0,30.51,NNW,336,0.0,-999.0,92,-99.99,,,0.00,weatherlink.com 1.10,2013-04-21 08:24:00,
2013-04-21 04:39:00,21.5,20.0,30.52,NNW,336,0.0,-999.0,93,-99.99,,,0.00,weatherlink.com 1.10,2013-04-21 08:39:00,
2013-04-21 04:54:00,21.5,20.0,30.53,NNW,337,0.0,-999.0,93,-99.99,,,0.00,weatherlink.com 1.10,2013-04-21 08:54:00,
2013-04-21 05:09:00,21.5,20.0,30.53,NNW,337,2.0,-999.0,93,-99.99,,,0.00,weatherlink.com 1.10,2013-04-21 09:09:00,
2013-04-21 05:24:00,22.0,20.0,30.54,NNW,337,0.0,-999.0,93,-99.99,,,0.00,weatherlink.com 1.10,2013-04-21 09:24:00,
2013-04-21 05:39:00,22.5,21.0,30.54,NNW,337,0.0,-999.0,92,-99.99,,,0.00,weatherlink.com 1.10,2013-04-21 09:39:00,
2013-04-21 05:54:00,22.4,21.0,30.55,NNW,337,0.0,-999.0,92,-99.99,,,0.00,weatherlink.com 1.10,2013-04-21 09:54:00,
2013-04-21 06:09:00,22.1,20.0,30.55,NNW,337,0.0,-999.0,91,-99.99,,,0.00,weatherlink.com 1.10,2013-04-21 10:09:00,
2013-04-21 06:24:00,22.0,20.0,30.56,NNW,337,0.0,-999.0,91,-99.99,,,0.00,weatherlink.com 1.10,2013-04-21 10:24:00,
2013-04-21 06:39:00,22.1,20.0,30.56,NNW,337,1.0,-999.0,92,-99.99,,,0.00,weatherlink.com 1.10,2013-04-21 10:39:00,
2013-04-21 06:54:00,22.7,21.0,30.56,NNW,337,2.0,-999.0,92,-99.99,,,0.00,weatherlink.com 1.10,2013-04-21 10:54:00,
2013-04-21 07:09:00,24.0,22.0,30.57,North,351,2.0,-999.0,91,-99.99,,,0.00,weatherlink.com 1.10,2013-04-21 11:09:00,
2013-04-21 07:24:00,25.1,22.0,30.58,NNE,28,3.0,-999.0,89,-99.99,,,0.00,weatherlink.com 1.10,2013-04-21 11:24:00,
2013-04-21 07:39:00,26.5,23.0,30.58,ENE,64,4.0,-999.0,86,-99.99,,,0.00,weatherlink.com 1.10,2013-04-21 11:39:00,
2013-04-21 07:54:00,28.1,23.0,30.59,ESE,106,6.0,-999.0,81,-99.99,,,0.00,weatherlink.com 1.10,2013-04-21 11:54:00,
2013-04-21 08:09:00,29.3,24.0,30.59,ESE,106,5.0,-999.0,79,-99.99,,,0.00,weatherlink.com 1.10,2013-04-21 12:09:00,
2013-04-21 08:24:00,30.5,24.0,30.60,ESE,109,7.0,-999.0,77,-99.99,,,0.00,weatherlink.com 1.10,2013-04-21 12:24:00,
2013-04-21 08:39:00,31.3,24.0,30.59,ESE,109,13.0,-999.0,73,-99.99,,,0.00,weatherlink.com 1.10,2013-04-21 12:39:00,
2013-04-21 08:54:00,31.7,24.0,30.60,ESE,121,12.0,-999.0,74,-99.99,,,0.00,weatherlink.com 1.10,2013-04-21 12:54:00,
2013-04-21 09:09:00,33.1,25.0,30.60,ESE,108,9.0,-999.0,71,-99.99,,,0.00,weatherlink.com 1.10,2013-04-21 13:09:00,
2013-04-21 09:24:00,33.8,25.0,30.60,ESE,123,5.0,-999.0,70,-99.99,,,0.00,weatherlink.com 1.10,2013-04-21 13:24:00,
2013-04-21 09:39:00,34.7,25.0,30.60,ESE,115,9.0,-999.0,68,-99.99,,,0.00,weatherlink.com 1.10,2013-04-21 13:39:00,
2013-04-21 09:54:00,35.8,25.0,30.59,ESE,103,8.0,-999.0,65,-99.99,,,0.00,weatherlink.com 1.10,2013-04-21 13:54:00,
2013-04-21 10:09:00,36.5,24.0,30.59,East,98,13.0,-999.0,62,-99.99,,,0.00,weatherlink.com 1.10,2013-04-21 14:09:00,
2013-04-21 10:24:00,37.6,24.0,30.60,SE,126,7.0,-999.0,58,-99.99,,,0.00,weatherlink.com 1.10,2013-04-21 14:24:00,
2013-04-21 10:39:00,37.6,24.0,30.60,SE,138,9.0,-999.0,58,-99.99,,,0.00,weatherlink.com 1.10,2013-04-21 14:39:00,
2013-04-21 10:54:00,39.4,25.0,30.60,ESE,109,11.0,-999.0,57,-99.99,,,0.00,weatherlink.com 1.10,2013-04-21 14:54:00,
2013-04-21 11:09:00,39.2,24.0,30.61,SSE,158,7.0,-999.0,55,-99.99,,,0.00,weatherlink.com 1.10,2013-04-21 15:09:00,
2013-04-21 11:24:00,40.6,25.0,30.60,ESE,115,12.0,-999.0,55,-99.99,,,0.00,weatherlink.com 1.10,2013-04-21 15:24:00,
2013-04-21 11:39:00,40.9,24.0,30.61,ESE,114,13.0,-999.0,52,-99.99,,,0.00,weatherlink.com 1.10,2013-04-21 15:39:00,
2013-04-21 11:54:00,40.8,24.0,30.60,SSE,150,8.0,-999.0,51,-99.99,,,0.00,weatherlink.com 1.10,2013-04-21 15:54:00,
2013-04-21 12:09:00,41.6,24.0,30.60,East,84,7.0,-999.0,49,-99.99,,,0.00,weatherlink.com 1.10,2013-04-21 16:09:00,
2013-04-21 12:24:00,41.6,25.0,30.59,SE,129,7.0,-999.0,52,-99.99,,,0.00,weatherlink.com 1.10,2013-04-21 16:24:00,
2013-04-21 12:39:00,42.7,27.0,30.58,SE,128,9.0,-999.0,54,-99.99,,,0.00,weatherlink.com 1.10,2013-04-21 16:39:00,
2013-04-21 12:54:00,42.9,26.0,30.57,SE,143,5.0,-999.0,52,-99.99,,,0.00,weatherlink.com 1.10,2013-04-21 16:54:00,
2013-04-21 13:09:00,44.3,26.0,30.56,SE,143,7.0,-999.0,49,-99.99,,,0.00,weatherlink.com 1.10,2013-04-21 17:09:00,
2013-04-21 13:24:00,44.9,26.0,30.56,ESE,119,8.0,-999.0,48,-99.99,,,0.00,weatherlink.com 1.10,2013-04-21 17:24:00,
2013-04-21 13:39:00,45.0,28.0,30.55,East,86,11.0,-999.0,52,-99.99,,,0.00,weatherlink.com 1.10,2013-04-21 17:39:00,
2013-04-21 13:54:00,46.1,26.0,30.54,SE,134,7.0,-999.0,46,-99.99,,,0.00,weatherlink.com 1.10,2013-04-21 17:54:00,
2013-04-21 14:09:00,46.1,26.0,30.54,SE,125,8.0,-999.0,46,-99.99,,,0.00,weatherlink.com 1.10,2013-04-21 18:09:00,
2013-04-21 14:24:00,46.0,27.0,30.54,SE,129,6.0,-999.0,48,-99.99,,,0.00,weatherlink.com 1.10,2013-04-21 18:24:00,
2013-04-21 14:39:00,46.8,29.0,30.52,ESE,121,6.0,-999.0,50,-99.99,,,0.00,weatherlink.com 1.10,2013-04-21 18:39:00,
2013-04-21 14:54:00,47.7,29.0,30.52,ESE,114,12.0,-999.0,48,-99.99,,,0.00,weatherlink.com 1.10,2013-04-21 18:54:00,
2013-04-21 15:09:00,48.1,26.0,30.51,SSE,155,9.0,-999.0,43,-99.99,,,0.00,weatherlink.com 1.10,2013-04-21 19:09:00,
2013-04-21 15:24:00,49.1,27.0,30.51,ESE,107,5.0,-999.0,42,-99.99,,,0.00,weatherlink.com 1.10,2013-04-21 19:24:00,
2013-04-21 15:39:00,49.0,27.0,30.50,South,173,7.0,-999.0,43,-99.99,,,0.00,weatherlink.com 1.10,2013-04-21 19:39:00,
2013-04-21 15:54:00,49.3,27.0,30.48,SSE,148,7.0,-999.0,42,-99.99,,,0.00,weatherlink.com 1.10,2013-04-21 19:54:00,
2013-04-21 16:09:00,49.3,26.0,30.48,SSE,167,7.0,-999.0,40,-99.99,,,0.00,weatherlink.com 1.10,2013-04-21 20:09:00,
2013-04-21 16:24:00,48.8,26.0,30.47,SE,131,7.0,-999.0,42,-99.99,,,0.00,weatherlink.com 1.10,2013-04-21 20:24:00,
2013-04-21 16:39:00,49.3,27.0,30.46,ESE,119,4.0,-999.0,43,-99.99,,,0.00,weatherlink.com 1.10,2013-04-21 20:39:00,
2013-04-21 16:54:00,48.7,26.0,30.45,SE,134,8.0,-999.0,41,-99.99,,,0.00,weatherlink.com 1.10,2013-04-21 20:54:00,
2013-04-21 17:09:00,49.2,27.0,30.44,ESE,120,7.0,-999.0,42,-99.99,,,0.00,weatherlink.com 1.10,2013-04-21 21:09:00,
2013-04-21 17:24:00,49.8,29.0,30.43,ESE,122,6.0,-999.0,45,-99.99,,,0.00,weatherlink.com 1.10,2013-04-21 21:24:00,
2013-04-21 17:39:00,49.6,27.0,30.43,SSE,158,8.0,-999.0,42,-99.99,,,0.00,weatherlink.com 1.10,2013-04-21 21:39:00,
2013-04-21 17:54:00,49.6,27.0,30.42,SSE,156,11.0,-999.0,42,-99.99,,,0.00,weatherlink.com 1.10,2013-04-21 21:54:00,
2013-04-21 18:09:00,50.1,29.0,30.42,SE,126,6.0,-999.0,44,-99.99,,,0.00,weatherlink.com 1.10,2013-04-21 22:09:00,
2013-04-21 18:24:00,51.3,30.0,30.41,ESE,121,4.0,-999.0,44,-99.99,,,0.00,weatherlink.com 1.10,2013-04-21 22:24:00,
2013-04-21 18:39:00,50.9,28.0,30.41,ESE,119,5.0,-999.0,42,-99.99,,,0.00,weatherlink.com 1.10,2013-04-21 22:39:00,
2013-04-21 18:54:00,50.7,27.0,30.41,ESE,118,8.0,-999.0,40,-99.99,,,0.00,weatherlink.com 1.10,2013-04-21 22:54:00,
2013-04-21 19:09:00,50.4,28.0,30.41,SE,144,6.0,-999.0,42,-99.99,,,0.00,weatherlink.com 1.10,2013-04-21 23:09:00,
2013-04-21 19:24:00,50.1,29.0,30.40,SE,146,11.0,-999.0,44,-99.99,,,0.00,weatherlink.com 1.10,2013-04-21 23:24:00,
2013-04-21 19:39:00,49.7,29.0,30.40,ESE,119,9.0,-999.0,45,-99.99,,,0.00,weatherlink.com 1.10,2013-04-21 23:39:00,
2013-04-21 19:54:00,49.1,28.0,30.40,SE,131,7.0,-999.0,44,-99.99,,,0.00,weatherlink.com 1.10,2013-04-21 23:54:00,
2013-04-21 20:09:00,48.5,28.0,30.41,SSE,147,5.0,-999.0,46,-99.99,,,0.00,weatherlink.com 1.10,2013-04-22 00:09:00,
2013-04-21 20:24:00,47.6,29.0,30.41,SE,142,6.0,-999.0,48,-99.99,,,0.00,weatherlink.com 1.10,2013-04-22 00:24:00,
2013-04-21 20:39:00,46.7,30.0,30.41,SE,140,8.0,-999.0,52,-99.99,,,0.00,weatherlink.com 1.10,2013-04-22 00:39:00,
2013-04-21 20:54:00,46.5,30.0,30.41,SSE,151,6.0,-999.0,52,-99.99,,,0.00,weatherlink.com 1.10,2013-04-22 00:54:00,
2013-04-21 21:09:00,46.4,29.0,30.41,SE,134,5.0,-999.0,52,-99.99,,,0.00,weatherlink.com 1.10,2013-04-22 01:09:00,
2013-04-21 21:24:00,46.0,30.0,30.41,SSE,151,5.0,-999.0,53,-99.99,,,0.00,weatherlink.com 1.10,2013-04-22 01:24:00,
2013-04-21 21:39:00,45.7,30.0,30.42,SSE,150,6.0,-999.0,54,-99.99,,,0.00,weatherlink.com 1.10,2013-04-22 01:39:00,
2013-04-21 21:54:00,45.3,30.0,30.42,SSE,148,5.0,-999.0,55,-99.99,,,0.00,weatherlink.com 1.10,2013-04-22 01:54:00,
2013-04-21 22:09:00,44.8,30.0,30.42,SE,134,2.0,-999.0,57,-99.99,,,0.00,weatherlink.com 1.10,2013-04-22 02:09:00,
2013-04-21 22:24:00,44.2,31.0,30.42,SE,130,7.0,-999.0,60,-99.99,,,0.00,weatherlink.com 1.10,2013-04-22 02:24:00,
2013-04-21 22:39:00,42.5,31.0,30.42,ESE,121,6.0,-999.0,65,-99.99,,,0.00,weatherlink.com 1.10,2013-04-22 02:39:00,
2013-04-21 22:54:00,41.9,32.0,30.42,ESE,117,6.0,-999.0,68,-99.99,,,0.00,weatherlink.com 1.10,2013-04-22 02:54:00,
2013-04-21 23:09:00,41.9,32.0,30.42,SE,131,5.0,-999.0,67,-99.99,,,0.00,weatherlink.com 1.10,2013-04-22 03:09:00,
2013-04-21 23:24:00,41.4,32.0,30.42,SE,126,4.0,-999.0,68,-99.99,,,0.00,weatherlink.com 1.10,2013-04-22 03:24:00,
2013-04-21 23:39:00,40.9,31.0,30.41,ESE,123,2.0,-999.0,69,-99.99,,,0.00,weatherlink.com 1.10,2013-04-22 03:39:00,
2013-04-21 23:54:00,40.7,31.0,30.41,ESE,118,5.0,-999.0,69,-99.99,,,0.00,weatherlink.com 1.10,2013-04-22 03:54:00,